This is the latest recevied weather packets stored in our database for station/object N0OQA. If no packets are shown the sender has not sent any weather packets the latest 10 day(s).
| Time | Temp. | Humidity | Pressure | Rain* | Wind** | Luminosity | Snow |
|---|---|---|---|---|---|---|---|
| 1778061443 | -1.11° C | 86% | 1017 hPa | 0 mm | - | - | - |
| 1778061143 | -1.11° C | 86% | 1017 hPa | 0 mm | - | - | - |
| 1778060843 | -1.11° C | 86% | 1017 hPa | 0 mm | - | - | - |
| 1778060242 | -1.11° C | 85% | 1017.1 hPa | 0 mm | - | - | - |
| 1778059342 | -1.11° C | 85% | 1016.9 hPa | 0 mm | - | - | - |
| 1778059041 | -1.11° C | 85% | 1016.8 hPa | 0 mm | - | - | - |
| 1778058741 | -1.11° C | 85% | 1016.9 hPa | 0 mm | - | - | - |
| 1778058441 | -1.11° C | 85% | 1016.8 hPa | 0 mm | - | - | - |
| 1778058141 | -0.56° C | 84% | 1016.7 hPa | 0 mm | - | - | - |
| 1778057240 | -0.56° C | 84% | 1016.5 hPa | 0 mm | - | - | - |
| 1778056639 | -1.11° C | 83% | 1016.6 hPa | 0 mm | - | - | - |
| 1778055138 | -1.11° C | 84% | 1016.6 hPa | 0 mm | - | - | - |
| 1778054537 | -1.11° C | 83% | 1016.6 hPa | 0 mm | - | - | - |
| 1778053936 | -0.56° C | 81% | 1016.4 hPa | 0 mm | - | - | - |
| 1778053636 | -0.56° C | 81% | 1016.4 hPa | 0 mm | - | - | - |
| 1778053336 | -0.56° C | 81% | 1016.4 hPa | 0 mm | - | - | - |
| 1778053035 | -0.56° C | 81% | 1016.4 hPa | 0 mm | - | - | - |
| 1778052735 | 0° C | 80% | 1016.3 hPa | 0 mm | - | - | - |
| 1778052135 | 0° C | 78% | 1016.4 hPa | 0 mm | - | - | - |
| 1778051534 | 0.56° C | 77% | 1016.4 hPa | 0 mm | - | - | - |
| 1778051234 | 0.56° C | 76% | 1016.4 hPa | 0 mm | - | - | - |
| 1778050633 | 0.56° C | 74% | 1016.4 hPa | 0 mm | - | - | - |
| 1778050033 | 1.11° C | 73% | 1016.4 hPa | 0 mm | - | - | - |
| 1778047630 | 1.67° C | 69% | 1016.4 hPa | 0 mm | - | - | - |
| 1778044327 | 2.22° C | 67% | 1016.1 hPa | 0 mm | - | - | - |
* Rain since midnight (hover to see other rain measurements)
** Current wind speed in m/s (hover to see current wind gust speed)